Overview Statistics Trail Chart Weather Telemetry Raw packets
 

This is the latest recevied weather packets stored in our database for station/object SV4JYD-14. If no packets are shown the sender has not sent any weather packets the latest 10 day(s).

<< 30 31 32 33 34 35 36 >>
Time Temp. Humidity Pressure Rain* Wind** Luminosity Snow
1777307755 20.56° C 46% 1016 hPa 0 mm - - -
1777306855 20.56° C 48% 1016 hPa 0 mm - - -
1777305954 21.67° C 43% 1016 hPa 0 mm - - -
1777304154 21.67° C 43% 1016 hPa 0 mm - - -
1777303254 21.11° C 50% 1016 hPa 0 mm - - -
1777302353 21.67° C 49% 1016 hPa 0 mm - - -
1777301453 21.67° C 44% 1016 hPa 0 mm - - -
1777300553 21.67° C 44% 1016 hPa 0 mm - - -
1777299653 22.78° C 41% 1016 hPa 0 mm - - -
1777298752 22.78° C 40% 1016 hPa 0 mm - - -
1777298149 22.78° C 41% 1016 hPa 0 mm - - -
1777297248 22.78° C 42% 1016 hPa 0 mm - - -
1777296348 22.78° C 43% 1017 hPa 0 mm - - -
1777295448 22.78° C 42% 1017 hPa 0 mm - - -
1777294547 22.78° C 41% 1017 hPa 0 mm - - -
1777293647 22.78° C 45% 1017 hPa 0 mm - - -
1777292747 22.78° C 46% 1017 hPa 0 mm - - -
1777291847 22.78° C 47% 1017 hPa 0 mm - - -
1777290946 22.22° C 50% 1017 hPa 0 mm - - -
1777290046 22.22° C 49% 1017 hPa 0 mm - - -
1777288246 22.22° C 50% 1018 hPa 0 mm - - -
1777287345 21.67° C 51% 1018 hPa 0 mm - - -
1777286445 22.22° C 50% 1018 hPa 0 mm - - -
1777285545 22.22° C 50% 1018 hPa 0 mm - - -
1777284645 21.67° C 50% 1018 hPa 0 mm - - -

* Rain latest hour (hover to see other rain measurements)
** Current wind speed in m/s (hover to see current wind gust speed)